Regional Weather Roundup
Issued by NWS Jackson, KY

Home | Current Version | Previous Version | Text Only | Print | Product List | Glossary Off
Versions: 1 2 3 4 5 6 7 8 9 10 11 12 13 14 15 16 17 18 19 20 21 22 23 24 25 26

000
ASUS43 KJKL 261610
RWRJKL

EAST KENTUCKY HOURLY WEATHER ROUNDUP
NATIONAL WEATHER SERVICE JACKSON KY
1200 PM EDT THU MAY 26 2016

NOTE: "FAIR" INDICATES FEW OR NO CLOUDS BELOW 12,000 FEET WITH
NO SIGNIFICANT WEATHER AND/OR OBSTRUCTIONS TO VISIBILITY.

* THESE REPORTS ARE NOT UNDER NWS QUALITY CONTROL AND MAY NOT
  REPORT WEATHER SUCH AS PRECIPITATION AND FOG.

KYZ079-080-083-085-087-088-110-112-115-119-120-261700
...EASTERN KENTUCKY...

CITY           SKY/WX    TMP DP  RH WIND       PRES   REMARKS
JACKSON        LGT RAIN  66  63  90 VRB3      30.18F
LONDON         CLOUDY    68  63  84 S5        30.20R
SOMERSET*      RAIN      66  64  94 CALM      30.20R
MONTICELLO*    TSTM      70  68  93 VRB7      30.19S
WILLIAMSBURG*  MOSUNNY   66  64  94 SE5       30.20S
MIDDLESBORO*   DRIZZLE   67  65  92 CALM      30.23S
HARLAN APT*    CLOUDY    64  61  88 CALM      30.24R
HAZARD APT*    RAIN      68  68 100 S5        30.19S
BLACK MTN*       N/A     61  61 100 SW3         N/A
PIKE CO APT*   LGT RAIN  65  65 100 S6        30.21S
BIG SANDY APT* RAIN      66  65  97 SW5       30.20R
MOREHEAD APT*  CLOUDY    72  64  78 VRB7      30.16F
ASHLAND*       CLOUDY    73  66  78 SW6       30.11F THUNDER
$$

KYZ035-036-041-042-044-050-067-078-099-261700
...CENTRAL KENTUCKY...

CITY           SKY/WX    TMP DP  RH WIND       PRES   REMARKS
MT STERLING*   CLOUDY    73  64  73 SW12G18   30.14F
FLEMING/MASON* MOSUNNY  N/A N/A N/A SW9       30.14S
DANVILLE*      CLOUDY    72  64  78 SW15      30.16F
RICHMOND*      CLOUDY    70  64  83 S10G16    30.14F
LEXINGTON      CLOUDY    74  65  73 S15G25    30.13S
FRANKFORT      CLOUDY    75  63  66 S15G21    30.10S
LOUISVILLE     PTSUNNY   79  65  62 S12       30.07F
LEBANON*       PTSUNNY   75  66  73 S15       30.13F
GLASGOW*       CLOUDY    77  66  69 SW6       30.12F
BOWLING GREEN  PTSUNNY   80  69  69 SW12      30.10S
$$

KYZ091>093-OHZ055-061-077-WVZ005-015-034-035-042-261700
...SOUTHERN OHIO/WEST VIRGINIA...

CITY           SKY/WX    TMP DP  RH WIND       PRES   REMARKS
COVINGTON      PTSUNNY   76  65  68 S10       30.08S
COLUMBUS       CLOUDY    77  63  61 SW15G21   30.05F
DAYTON         CLOUDY    74  65  73 SW12      30.07S
WILMINGTON     CLOUDY    75  65  70 SW16      30.07S
HUNTINGTON     PTSUNNY   72  64  76 SW9       30.14S
CHARLESTON     PTSUNNY   75  62  64 W9G22     30.15R
PINEVILLE*     CLOUDY    76  58  52 MISG      30.24S
BECKLEY        CLOUDY    72  57  59 W8        30.22S
BLUEFIELD      PTSUNNY   71  57  61 VRB7G21   30.24S
LOGAN CO APT*  CLOUDY    68  63  83 W8        30.20R
$$

VAZ002-007-008-TNZ017-027-036-066-071-261700
...SOUTHWEST VIRGINIA/EAST TENNESSEE...

CITY           SKY/WX    TMP DP  RH WIND       PRES   REMARKS
WISE*          LGT RAIN  68  55  64 SW7       30.28R
JONESVILLE*      N/A     66  64  94 CALM      30.26R
ABINGDON*      CLOUDY    73  62  70 W9        30.25R
BRISTOL        CLOUDY    73  61  65 SW7       30.24R
SEVIERVILLE*   MOSUNNY   68  63  83 CALM      30.22S
KNOXVILLE      CLOUDY    69  64  84 CALM      30.21R
OAK RIDGE      CLOUDY    73  64  73 CALM      30.22R
CROSSVILLE     MOSUNNY   77  64  64 MISG      30.22S
NASHVILLE      PTSUNNY   83  65  54 S12       30.12S
$$

...KEY TO REMARKS...
VSB - VISIBILITY IN MILES
WCI - WIND CHILL INDEX
HX  - HEAT INDEX

$$




USA.gov is the U.S. government's official web portal to all federal, state and local government web resources and services.